This demonstration page uses our WeatherBlox Daily Observations layout. Learn more.

Left ArrowRight Arrow

Hourly Observations for July 11, 2022

Temp ( °F °C ) Dew Point ( °F °C ) Humidity (%) Winds ( mph kmh ) Pressure ( in mb ) Visibility ( mi km ) Precip ( " mm )
12:52 am 00:52 Partly Cloudy 81 27.2 73 22.8 77 77 SSE 5 7 29.83 1010 10 16 0.00 0.00
1:52 am 01:52 Mostly Cloudy 81 27.2 73 22.8 77 77 SSE 8 13 29.81 1009 10 16 0.00 0.00
2:14 am 02:14 Cloudy with Thunderstorms 80 26.7 72 22.2 76 76 SSE 10 17 29.78 1008 10 16 0.00 0.00
2:52 am 02:52 Cloudy with Thunderstorms 80 26.7 72 22.2 76 76 WSW 10 17 29.84 1011 10 16 0.00 0.00
2:59 am 02:59 Windy with Storms Likely 77 25 67 19.4 71 71 NW 31 50 29.88 1012 10 16 0.00 0.00
3:15 am 03:15 Cloudy with Light Rain 73 22.8 67 19.4 81 81 NW 13 20 29.85 1011 10 16 0.00 0.00
3:52 am 03:52 Cloudy 72 22.2 67 19.4 84 84 N 13 20 29.79 1009 10 16 0.00 0.00
4:52 am 04:52 Cloudy 74 23.3 66 18.9 76 76 S 7 11 29.78 1008 10 16 0.00 0.00
5:52 am 05:52 Cloudy 72 22.2 66 18.9 82 82 NNW 7 11 29.85 1011 10 16 0.00 0.00
6:52 am 06:52 Mostly Cloudy 73 22.8 69 20.6 87 87 NNE 6 9 29.85 1011 10 16 0.00 0.00
7:43 am 07:43 Mostly Cloudy 74 23.3 69 20.6 85 85 Calm 29.87 1012 10 16 0.00 0.00
7:52 am 07:52 Cloudy 74 23.3 69 20.6 85 85 Calm 29.88 1012 10 16 0.00 0.00
8:22 am 08:22 Mostly Cloudy 76 24.4 71 21.7 85 85 WSW 5 7 29.91 1013 10 16 0.00 0.00
8:52 am 08:52 Mostly Cloudy 78 25.6 70 21.1 76 76 NNE 3 6 29.92 1013 10 16 0.00 0.00
9:52 am 09:52 Cloudy 76 24.4 71 21.7 85 85 NW 3 6 29.94 1014 10 16 0.00 0.00
10:52 am 10:52 Mostly Cloudy 80 26.7 70 21.1 71 71 N 10 17 29.94 1014 10 16 0.00 0.00
11:52 am 11:52 Mostly Cloudy 82 27.8 69 20.6 65 65 NNW 6 9 29.94 1014 10 16 0.00 0.00
12:52 pm 12:52 Mostly Cloudy 81 27.2 68 20 65 65 NW 6 9 29.92 1013 10 16 0.00 0.00
1:52 pm 13:52 Partly Cloudy 84 28.9 66 18.9 55 55 NW 13 20 29.93 1014 10 16 0.00 0.00
2:52 pm 14:52 Partly Cloudy 85 29.4 64 17.8 50 50 NNW 20 31 29.94 1014 10 16 0.00 0.00
3:52 pm 15:52 Mostly Sunny 85 29.4 63 17.2 48 48 NNW 18 30 29.94 1014 10 16 0.00 0.00
4:52 pm 16:52 Mostly Sunny 85 29.4 65 18.3 51 51 NW 13 20 29.94 1014 10 16 0.00 0.00
5:52 pm 17:52 Mostly Sunny 84 28.9 62 16.7 48 48 NNW 14 22 29.94 1014 10 16 0.00 0.00
6:52 pm 18:52 Mostly Sunny 83 28.3 62 16.7 49 49 NW 13 20 29.93 1014 10 16 0.00 0.00
7:52 pm 19:52 Mostly Sunny 80 26.7 61 16.1 52 52 NNW 7 11 29.94 1014 10 16 0.00 0.00
8:52 pm 20:52 Sunny 73 22.8 60 15.6 64 64 NW 7 11 29.95 1014 10 16 0.00 0.00
9:52 pm 21:52 Clear 71 21.7 61 16.1 71 71 N 5 7 29.97 1015 10 16 0.00 0.00
10:52 pm 22:52 Clear 72 22.2 62 16.7 71 71 Calm 29.98 1015 10 16 0.00 0.00
11:52 pm 23:52 Clear 68 20 63 17.2 84 84 NNE 3 6 30.00 1016 10 16 0.00 0.00

Powered by AerisWeather